Вернуться в каталог

STARLINK-35337

АктивенСвязьVLEO
NORAD 65831·PAYLOAD·🇺🇸 United States

Запущен Sep 29, 2025 с Vandenberg Space Force Base

Loading…

Ближайшие Пролёты (ближайшие 24 часа)

TLE

СвежийSource: CelesTrak SupGP

Эпоха: Sep 15, 2026, 03:42 UTC

1 65831C 25221J   26258.15465278 -.00011744  00000+0 -34688-3 0  2584
2 65831  53.1589 284.3385 0001279  87.0944  40.1116 15.34405519    11

Отслеживайте STARLINK-35337 в реальном времени с AllMySat

Download on the App Store